Theta_e
337 338 337 341 326 325 320 319 319 319 318 321 323 325 325 322 319 321 326 328 328 329 329 331 329 326 328 329 327 325 325 325 323 321 323 320 316 318 319 319 319 319 320
345 340 342 342 326 329 323 321 319 319 320 321 322 322 322 323 324 325 324 326 327 327 327 329 329 329 329 328 324 322 324 324 324 324 323 320 318 317 318 319 319 319 320
347 345 346 344 328 330 326 323 322 319 319 319 319 319 320 321 323 325 328 329 329 329 324 325 324 324 323 323 323 324 324 324 324 323 322 320 318 318 318 319 318 318 319
347 347 346 347 332 329 329 324 321 320 319 319 321 322 322 323 325 327 329 329 325 325 325 323 322 322 322 321 320 321 323 324 324 324 323 321 319 319 318 318 318 318 318
346 348 347 347 336 327 330 323 321 320 319 320 323 324 326 327 326 324 325 327 326 323 323 321 322 323 323 323 320 320 322 323 322 322 322 320 320 319 318 318 317 318 318
347 347 349 347 336 329 330 326 323 321 320 320 324 326 328 327 325 323 324 327 326 324 324 322 321 321 322 322 320 321 322 322 321 321 320 320 319 318 317 317 316 317 318
347 350 349 340 338 331 330 331 323 320 321 321 325 328 327 326 327 327 328 328 326 327 325 322 320 320 320 320 320 322 321 321 321 321 319 319 319 317 317 317 316 317 318
348 350 350 345 338 332 332 332 325 320 321 324 324 329 331 331 331 329 328 326 326 326 325 321 321 320 320 321 321 321 320 321 321 320 321 320 318 317 318 317 316 317 318
349 350 347 343 342 333 333 330 320 320 321 328 327 330 330 328 329 326 327 326 325 324 324 321 322 321 322 322 320 320 321 321 321 319 317 318 319 320 318 315 317 318 318
349 349 348 344 340 332 332 331 325 325 323 332 332 333 332 330 328 325 327 328 324 323 323 322 322 322 321 318 320 321 321 321 320 318 316 318 320 318 316 316 318 317 317
350 349 344 341 338 336 337 337 336 334 332 335 333 330 330 330 325 325 326 324 322 323 323 320 319 316 318 320 321 320 320 320 318 315 318 319 318 316 316 317 319 317 319
350 348 345 340 339 338 336 335 334 328 327 334 330 330 330 325 322 324 325 324 324 321 319 317 314 315 318 320 320 318 319 317 315 316 317 318 318 316 316 316 319 318 321
346 345 341 339 335 334 332 328 327 329 326 331 330 328 324 322 323 326 325 324 321 320 319 317 314 315 318 319 319 318 316 315 315 316 317 317 317 318 317 315 318 318 322
342 341 340 339 336 332 331 326 325 328 331 331 328 328 324 324 325 325 323 321 321 320 318 316 312 315 319 319 317 316 314 315 315 315 316 317 318 318 317 315 318 319 320
339 334 327 324 324 328 329 326 325 331 329 328 328 327 324 325 324 322 320 320 320 319 318 317 315 316 319 319 316 314 314 314 314 315 316 317 317 317 316 316 318 318 318
325 322 325 325 327 328 324 327 331 332 330 328 326 325 324 323 322 322 321 320 319 318 317 314 316 318 317 314 313 313 311 311 310 312 313 314 315 315 316 316 318 318 319
328 330 328 327 323 321 326 329 327 328 327 326 325 325 324 323 322 320 318 317 317 313 312 314 315 315 313 312 311 310 309 307 307 307 308 310 312 314 316 317 317 319 318
325 323 324 326 330 329 328 327 327 327 324 323 323 322 322 320 318 317 315 314 313 312 313 313 313 312 311 310 309 308 308 307 306 305 305 306 308 310 315 316 318 319 318
327 328 328 328 328 328 328 327 326 325 323 322 322 322 318 316 316 315 314 314 313 310 310 310 310 310 309 309 307 305 301 300 302 302 302 303 304 306 312 316 318 318 320
326 326 326 326 326 325 325 324 323 323 322 321 320 317 315 315 313 311 310 309 309 309 310 310 309 309 307 306 306 303 297 297 300 300 300 301 301 302 307 314 317 317 319
321 320 322 324 323 323 323 322 322 321 320 318 315 316 315 313 310 308 306 307 307 308 308 307 306 305 304 303 300 295 295 298 298 299 299 299 299 300 302 310 314 316 317
323 324 325 326 325 323 323 323 321 321 319 315 316 317 315 312 310 309 306 305 307 306 306 304 302 299 298 296 294 295 297 298 297 298 298 298 299 299 300 302 309 313 314
325 324 323 323 323 323 323 322 321 319 316 317 317 317 315 312 311 309 306 305 306 306 304 303 299 296 293 292 293 294 295 296 297 297 297 298 298 298 298 299 300 303 309
320 320 321 322 322 321 320 320 319 319 318 317 317 317 315 312 311 308 306 304 305 305 303 302 295 295 292 292 293 294 295 295 296 295 296 296 297 297 297 298 299 299 301
320 319 316 314 314 314 317 318 317 316 314 314 314 314 312 311 309 307 305 304 302 301 300 296 294 294 294 292 292 292 293 294 294 295 295 295 295 296 296 297 297 298 298
315 315 313 313 313 312 312 312 311 312 312 311 312 311 310 310 308 307 305 304 302 300 297 295 295 294 294 293 294 294 293 292 293 294 294 294 294 295 295 296 296 296 297
Wind_Speed
42 39 34 31 27 18 16 14 12 11 13 13 12 11 10 9 10 11 13 13 15 16 16 17 18 19 20 21 22 22 22 24 29 32 31 29 31 33 36 35 37 37 32
44 41 38 33 29 21 18 15 13 13 12 11 10 10 10 9 9 10 11 9 11 12 14 16 18 19 22 22 22 22 22 23 27 32 34 34 35 35 39 40 43 40 37
47 43 41 35 31 26 22 16 15 14 12 11 10 9 8 8 7 8 10 11 13 14 16 17 18 17 19 21 23 25 25 25 26 30 35 34 35 35 39 43 43 46 43
50 47 44 41 36 30 23 17 16 16 14 14 12 10 9 8 9 11 14 14 14 16 16 17 18 19 21 23 24 26 25 26 27 30 33 37 36 35 39 42 50 49 53
54 50 46 44 38 32 26 17 18 19 18 18 15 13 11 10 11 13 15 16 17 15 16 16 20 21 22 23 24 25 24 27 29 29 32 35 38 36 39 40 50 46 51
57 53 48 41 38 34 27 19 19 20 22 22 20 15 12 12 11 15 17 18 19 18 17 18 21 24 23 21 23 25 24 26 27 29 31 33 36 36 37 39 45 47 49
53 54 46 43 43 35 28 25 19 20 23 25 22 17 14 11 12 18 21 21 20 20 19 21 22 16 18 21 23 24 25 24 25 28 32 34 34 32 36 42 47 45 52
50 50 47 32 40 30 29 25 21 22 25 24 24 20 17 17 18 20 21 22 21 21 22 23 24 23 23 21 24 26 24 24 26 28 32 36 33 32 38 44 50 54 51
46 47 40 38 32 32 31 22 20 24 25 25 22 21 19 18 20 22 23 21 20 21 24 25 23 24 22 24 25 24 24 26 28 30 31 32 32 33 35 46 47 52 47
43 41 34 35 29 32 26 19 22 24 25 27 21 21 24 23 22 22 23 24 23 23 24 26 24 22 23 24 21 22 25 29 31 36 35 28 22 26 39 43 52 48 47
36 35 24 24 29 35 34 33 27 25 30 28 17 21 23 24 23 18 20 22 21 21 24 22 16 17 18 18 18 21 26 30 35 36 30 25 23 30 40 45 53 48 43
29 31 29 30 27 25 27 28 25 16 41 16 16 24 23 21 20 18 19 21 18 20 18 17 15 16 19 19 20 24 26 32 32 28 27 25 24 30 43 49 52 47 36
25 28 29 24 14 13 10 12 18 42 25 19 18 23 17 17 18 19 19 17 18 17 17 16 18 19 20 19 18 24 27 29 25 25 25 24 26 29 38 46 50 43 28
20 25 27 23 14 12 13 21 12 13 14 18 19 17 17 16 17 16 15 17 17 17 18 20 20 20 20 17 20 25 26 20 20 21 22 22 25 27 34 44 49 42 36
11 9 5 6 2 8 15 24 19 12 16 16 15 17 16 14 14 13 14 16 19 19 20 23 21 19 17 17 22 21 17 15 15 17 20 22 25 27 30 40 41 44 34
21 23 9 13 24 26 25 22 15 20 18 16 13 12 12 12 12 13 15 15 17 18 19 19 16 14 17 21 19 16 13 13 15 18 19 22 24 26 26 32 34 37 43
19 19 16 17 19 20 24 18 19 20 14 11 12 14 14 14 12 11 12 14 15 15 15 14 14 16 16 15 14 13 15 15 16 17 19 21 23 23 23 26 33 32 40
13 11 13 16 18 22 22 18 19 10 8 11 13 12 11 11 11 10 10 10 9 9 12 14 15 14 12 11 12 13 14 15 15 17 19 20 21 21 21 23 23 28 30
8 10 10 10 10 11 14 11 8 11 11 13 14 10 7 9 10 10 11 14 14 13 14 12 10 10 10 11 12 14 17 15 14 15 16 17 19 20 19 20 19 20 23
12 9 8 7 6 7 9 9 12 14 11 11 10 7 5 5 9 12 12 11 10 9 9 8 9 10 11 11 14 16 15 11 9 10 12 14 16 18 18 17 19 19 19
11 8 7 7 6 8 11 11 9 9 9 10 10 8 4 5 7 9 9 9 7 7 7 5 6 9 10 11 12 12 9 6 7 8 10 12 15 17 17 15 15 16 17
10 7 10 12 12 11 10 9 9 10 12 13 12 10 7 5 4 8 9 9 7 5 5 5 8 9 10 8 6 5 3 4 5 5 8 10 14 16 18 17 14 14 16
8 10 10 11 9 9 10 10 10 11 13 12 11 10 9 6 7 9 9 9 9 7 6 7 9 8 5 3 2 3 3 3 4 6 7 9 12 14 16 17 17 16 14
9 9 9 8 8 9 11 10 10 12 12 9 11 10 11 9 10 9 8 8 9 9 8 9 6 4 2 2 1 1 2 3 5 7 7 8 9 11 12 14 15 15 15
6 7 4 2 2 3 6 8 9 10 9 7 8 9 12 13 13 9 7 5 6 7 8 5 4 4 2 2 3 3 4 3 4 6 8 7 8 9 10 11 13 13 14
7 5 4 5 6 6 7 8 7 8 8 8 9 11 14 15 14 12 9 8 7 6 7 6 3 1 2 2 3 5 6 5 4 4 6 6 5 5 6 8 10 11 12
Wind_Direction
222 223 223 224 224 222 222 222 223 230 234 238 242 247 258 263 263 263 269 277 278 280 281 283 284 287 286 287 289 293 294 294 293 298 307 314 318 324 326 328 326 319 307
226 224 224 224 222 223 226 224 219 227 229 234 242 255 259 260 261 271 279 281 289 291 290 292 292 284 282 283 284 293 294 294 292 295 304 311 313 319 322 324 326 323 316
227 226 224 223 223 225 229 225 226 231 234 240 248 245 248 250 249 264 277 281 287 294 297 295 292 281 280 283 285 285 291 293 290 292 297 305 314 317 322 325 326 325 319
230 226 224 223 228 227 228 229 231 233 233 237 240 236 240 245 254 265 271 279 291 296 299 299 289 287 294 292 288 286 287 291 291 290 290 299 309 313 317 322 322 322 318
233 227 225 225 229 224 220 225 232 230 227 235 240 241 246 250 259 263 272 281 292 296 291 303 293 291 295 291 292 289 289 290 293 290 290 298 303 309 316 321 320 314 311
236 230 221 225 226 223 218 221 225 225 229 234 240 241 250 261 272 277 280 285 291 289 292 294 293 290 289 282 290 290 292 291 290 291 294 294 300 305 313 317 320 315 306
243 228 216 228 229 221 216 225 225 229 233 237 241 244 250 262 275 280 283 283 285 282 283 293 305 305 304 291 291 289 291 290 291 295 294 294 294 304 313 310 320 311 302
244 231 219 228 223 219 218 225 231 237 241 243 246 249 254 266 271 277 282 284 280 276 277 289 300 293 301 292 291 291 293 292 297 295 293 292 287 297 315 316 318 312 308
242 229 225 227 221 214 216 224 234 248 256 252 251 248 256 263 290 284 282 280 279 283 283 285 294 298 295 291 290 293 295 300 305 304 301 297 292 296 311 322 319 311 299
248 238 230 218 217 214 217 228 243 253 266 259 259 265 272 276 281 279 279 275 281 284 280 286 300 298 294 288 289 296 303 310 314 316 317 314 308 311 324 329 328 310 300
249 241 231 232 222 223 226 237 250 261 261 253 257 275 277 271 279 277 276 280 290 288 289 294 303 300 292 287 290 304 310 315 319 319 321 317 314 331 345 336 335 327 309
245 234 221 221 223 224 232 242 243 236 299 261 273 274 267 264 274 278 274 283 286 292 288 299 308 305 295 294 298 306 310 317 318 319 318 322 319 335 351 344 341 339 329
228 223 217 211 221 246 268 270 295 258 239 265 264 278 256 268 275 273 272 277 291 282 287 296 301 298 292 292 296 304 314 316 318 319 327 327 329 333 345 347 347 1 13
212 211 214 222 230 245 268 273 260 259 248 261 263 253 266 272 270 258 271 283 278 282 292 297 295 291 285 286 294 306 313 314 320 324 330 332 340 345 356 352 350 7 6
192 192 170 139 123 279 251 273 265 249 259 262 261 261 260 256 257 268 280 280 280 285 286 286 288 287 277 289 305 308 310 317 325 330 334 338 344 352 360 356 357 10 4
158 146 170 240 259 271 242 239 247 251 256 255 260 262 258 268 275 283 280 282 283 280 281 279 279 272 289 300 303 304 313 326 335 335 338 339 345 350 358 360 3 13 19
203 251 253 247 247 240 235 248 258 257 256 261 271 279 279 290 289 284 287 291 284 276 269 265 270 285 291 298 306 312 322 330 334 333 338 342 344 351 353 2 12 14 28
250 240 236 230 239 242 239 247 255 247 290 287 284 284 287 289 285 288 288 298 298 278 273 276 280 279 281 296 309 315 317 320 326 333 340 344 345 353 353 5 18 16 26
199 211 225 229 221 223 240 237 244 263 273 286 284 274 269 280 284 281 277 283 290 281 279 277 265 270 281 295 306 318 322 321 328 333 340 348 350 356 2 6 13 26 32
208 211 220 227 225 226 246 259 270 268 265 276 261 246 252 283 296 292 288 284 281 274 265 264 271 279 289 298 306 315 320 320 326 336 347 354 359 360 3 9 13 26 36
207 227 257 265 270 272 257 255 259 260 277 257 246 226 243 281 291 295 295 285 277 264 266 279 289 292 297 304 311 321 324 330 343 351 357 6 9 11 11 10 14 23 34
227 249 259 259 265 252 246 246 260 259 244 218 221 219 245 249 296 314 302 288 271 259 267 302 314 308 303 310 322 342 360 356 357 360 5 9 11 14 17 20 21 20 30
273 276 271 269 251 245 242 245 248 238 224 220 228 238 252 277 315 313 304 284 268 271 276 309 316 318 308 316 340 354 7 10 7 8 4 6 8 13 17 25 31 35 33
266 277 267 244 235 241 241 229 228 231 221 251 250 250 259 276 289 294 311 299 265 264 271 304 302 314 311 313 315 321 333 348 356 2 360 2 2 6 10 20 31 37 39
266 260 255 218 186 203 219 225 223 232 245 237 243 260 265 258 257 271 295 305 285 271 279 268 282 284 278 281 290 292 294 314 342 356 358 358 359 359 8 15 27 32 43
259 260 253 236 243 240 232 229 241 247 261 260 258 270 266 258 253 256 264 284 280 278 263 249 238 220 215 239 302 322 306 298 313 346 358 349 355 359 9 18 28 36 44